Stations météo

réclame
Mon MeteoGroup
Åsele, Suède (2254): Température de l'air & dewpoint: 13.06.2018 20:00:00 - 19.06.2018 20:00:00 (CEST)Åsele, Suède (2254): Vitesse du vent & gusts: 13.06.2018 20:00:00 - 19.06.2018 20:00:00 (CEST)Åsele, Suède (2254): Direction du vent: 13.06.2018 20:00:00 - 19.06.2018 20:00:00 (CEST)Åsele, Suède (2254): reduced air pressure: 13.06.2018 20:00:00 - 19.06.2018 20:00:00 (CEST)Åsele, Suède (2254): visibility: 13.06.2018 20:00:00 - 19.06.2018 20:00:00 (CEST)Åsele, Suède (2254): Quantités de précipitations: 13.06.2018 20:00:00 - 19.06.2018 20:00:00 (CEST)
Date & Time tt [°C] td [°C] ff [km/h] ff [knt] fx [km/h] fx [knt] dd ppp [hPa] vv [km] rr [mm]
19.06.2018 20:00:00 - - - - - - - - - -
19.06.2018 19:00:00 12,7 6,5 17 9 45 24 W 995,4 31 0,0
19.06.2018 18:00:00 13,1 5,0 18 10 34 18 W 994,9 38 0,0
19.06.2018 17:00:00 13,8 4,7 16 8 35 19 W 993,9 39 0,0
19.06.2018 16:00:00 14,6 6,4 12 7 36 20 W 993,5 33 0,0
19.06.2018 15:00:00 12,4 4,4 18 10 42 23 W 993,6 39 0,0
19.06.2018 14:00:00 11,8 6,9 16 8 35 19 W 993,4 50 0,0
19.06.2018 13:00:00 9,3 7,2 15 8 32 17 W 993,4 44 0,0
19.06.2018 12:00:00 8,2 7,4 13 7 27 14 W 993,0 20 1,0
19.06.2018 11:00:00 6,9 6,5 11 6 31 17 W 993,1 8 4,4
19.06.2018 10:00:00 7,4 7,0 15 8 37 20 WNW 992,4 5 6,4
19.06.2018 09:00:00 8,0 7,6 13 7 30 16 W 991,7 4,0 4,1
19.06.2018 08:00:00 11,2 10,6 3 2 10 6 SSE 992,0 7 1,4
19.06.2018 07:00:00 11,3 10,0 5 3 18 10 SSE 993,2 19 0,3
19.06.2018 06:00:00 11,4 9,7 6 3 14 7 SSE 994,3 36 0,0
19.06.2018 05:00:00 10,7 10,4 4 2 11 6 SE 995,3 46 0,0
19.06.2018 04:00:00 9,2 9,1 0 0 6 3 N 996,6 15 0,0
19.06.2018 03:00:00 9,2 9,1 3 1 5 3 SE 997,7 8 0,0
19.06.2018 02:00:00 9,1 8,6 0 0 11 6 N 998,7 15 0,0
19.06.2018 01:00:00 - - - - - - - - - -
19.06.2018 00:00:00 10,0 9,5 4 2 8 5 SE 1000,1 50 0,0
18.06.2018 23:00:00 10,4 9,8 2 1 10 5 SE 1000,8 35 0,0
18.06.2018 22:00:00 11,7 10,8 5 3 14 7 SE 1001,3 50 0,0
18.06.2018 21:00:00 12,3 11,5 6 3 14 7 ESE 1001,4 29 0,8
18.06.2018 20:00:00 14,5 10,7 5 3 21 12 SSW 1001,8 39 0,0
18.06.2018 19:00:00 16,7 9,6 5 3 16 9 SSW 1001,6 47 0,0
18.06.2018 18:00:00 16,1 10,2 5 3 17 9 SSW 1002,0 40 0,0
18.06.2018 17:00:00 18,0 10,1 7 4 18 10 SW 1002,0 38 0,0
18.06.2018 16:00:00 15,7 10,0 9 5 19 10 SW 1002,8 46 0,0
18.06.2018 15:00:00 14,2 10,0 9 5 27 14 SW 1003,2 47 0,0
18.06.2018 14:00:00 14,0 10,6 9 5 27 15 WSW 1003,2 50 0,0
18.06.2018 13:00:00 13,4 10,6 7 4 21 12 WSW 1002,9 48 0,0
18.06.2018 12:00:00 12,2 11,1 6 3 16 9 W 1003,0 21 0,5
18.06.2018 11:00:00 11,5 10,7 7 4 16 8 W 1003,1 15 0,6
18.06.2018 10:00:00 10,6 9,7 5 3 11 6 W 1003,0 15 0,2
18.06.2018 09:00:00 10,9 9,8 3 1 6 3 SW 1002,9 23 0,0
18.06.2018 08:00:00 9,8 8,7 3 2 8 4 N 1003,2 39 0,0
18.06.2018 07:00:00 9,5 9,0 3 2 7 4 NNE 1003,9 8 0,5
18.06.2018 06:00:00 9,2 8,7 3 2 8 5 NNE 1004,8 9 1,6
18.06.2018 05:00:00 9,1 8,6 4 2 10 6 NNE 1005,8 13 3,0
18.06.2018 04:00:00 9,1 8,8 3 2 6 3 NNW 1006,9 4,4 2,2
18.06.2018 03:00:00 9,3 8,8 2 1 9 5 N 1007,7 11 0,1
18.06.2018 02:00:00 9,4 8,8 3 1 10 6 N 1008,8 19 0,1
18.06.2018 01:00:00 9,5 9,2 3 2 7 4 ENE 1010,6 5 0,9
18.06.2018 00:00:00 9,5 9,2 0 0 3 2 N 1011,5 3,4 1,3
17.06.2018 23:00:00 10,0 9,5 0 0 5 3 N 1012,2 7 0,8
17.06.2018 22:00:00 10,9 10,1 0 0 4 2 N 1012,7 11 0,4
17.06.2018 21:00:00 11,7 10,6 0 0 13 7 N 1013,0 16 0,2
17.06.2018 20:00:00 13,1 10,8 2 1 5 3 ESE 1013,2 24 0,1
17.06.2018 19:00:00 13,8 10,2 4 2 23 12 SW 1013,2 26 0,0
17.06.2018 18:00:00 16,5 6,3 7 4 26 14 SSE 1013,1 39 0,0
17.06.2018 17:00:00 17,6 5,5 9 5 29 16 SSE 1013,2 36 0,0
17.06.2018 16:00:00 17,0 5,9 8 4 29 16 SSE 1013,5 44 0,0
17.06.2018 15:00:00 17,2 6,8 10 5 20 11 ESE 1014,2 49 0,0
17.06.2018 14:00:00 16,3 7,0 8 4 26 14 SSE 1014,9 34 0,0
17.06.2018 13:00:00 16,7 7,3 8 4 24 13 SSE 1015,0 42 0,0
17.06.2018 12:00:00 17,1 5,7 12 7 27 15 SE 1015,1 32 0,0
17.06.2018 11:00:00 17,8 6,3 10 5 29 16 SE 1015,2 32 0,0
17.06.2018 10:00:00 17,7 6,5 13 7 27 15 SE 1015,6 30 0,0
17.06.2018 09:00:00 16,9 4,9 11 6 23 12 SE 1015,9 29 0,0
17.06.2018 08:00:00 14,5 4,5 10 5 18 10 ESE 1016,6 47 0,0
17.06.2018 07:00:00 12,8 4,7 3 1 8 4 ENE 1017,2 46 0,0
17.06.2018 06:00:00 9,8 4,2 4 2 9 5 ENE 1017,8 39 0,0
17.06.2018 05:00:00 5,1 4,1 0 0 5 3 N 1018,7 43 0,0
17.06.2018 04:00:00 1,9 1,5 2 1 4 2 ESE 1019,0 34 0,0
17.06.2018 03:00:00 1,7 1,1 0 0 4 2 N 1019,2 39 0,0
17.06.2018 02:00:00 2,6 1,9 0 0 4 2 N 1018,9 44 0,0
17.06.2018 01:00:00 3,8 2,5 0 0 3 2 N 1018,6 50 0,0
17.06.2018 00:00:00 5,6 3,1 0 0 6 3 N 1018,1 50 0,0
16.06.2018 23:00:00 11,4 3,2 5 3 12 7 N 1017,1 47 0,0
16.06.2018 22:00:00 13,7 2,9 6 4 15 8 NNW 1016,1 41 0,0
16.06.2018 21:00:00 16,1 2,1 5 3 16 8 NNW 1014,9 43 0,0
16.06.2018 20:00:00 17,0 2,2 8 4 19 10 WNW 1014,3 44 0,0
16.06.2018 19:00:00 18,0 3,1 10 6 27 15 W 1013,8 33 0,0
16.06.2018 18:00:00 17,9 3,4 10 5 26 14 W 1013,5 34 0,0
16.06.2018 17:00:00 17,6 2,3 9 5 24 13 W 1013,2 43 0,0
16.06.2018 16:00:00 16,6 4,3 15 8 39 21 WNW 1013,2 36 0,0
16.06.2018 15:00:00 18,3 4,1 11 6 25 13 WNW 1012,2 36 0,0
16.06.2018 14:00:00 16,4 3,5 10 5 20 11 WNW 1012,3 44 0,0
16.06.2018 13:00:00 15,8 4,8 8 4 20 11 W 1012,2 41 0,0
16.06.2018 12:00:00 16,1 4,8 5 3 15 8 NW 1011,9 37 0,0
16.06.2018 11:00:00 16,8 7,2 6 3 16 8 W 1011,8 35 0,0
16.06.2018 10:00:00 15,7 5,6 3 2 11 6 WSW 1011,8 39 0,0
16.06.2018 09:00:00 14,8 6,1 7 4 14 8 WNW 1011,4 35 0,0
16.06.2018 08:00:00 13,1 5,0 4 2 8 4 NW 1011,4 33 0,0
16.06.2018 07:00:00 13,4 6,0 2 1 5 3 SW 1010,8 44 0,0
16.06.2018 06:00:00 8,7 6,0 0 0 4 2 N 1011,3 42 0,0
16.06.2018 05:00:00 3,0 2,0 0 0 3 1 N 1011,7 44 0,0
16.06.2018 04:00:00 1,0 0,7 0 0 3 2 N 1011,4 41 0,0
16.06.2018 03:00:00 1,2 0,9 0 0 4 2 N 1011,0 45 0,0
16.06.2018 02:00:00 2,3 1,9 0 0 4 2 N 1010,5 50 0,0
16.06.2018 01:00:00 3,5 2,6 0 0 4 2 N 1010,1 50 0,0
16.06.2018 00:00:00 6,0 3,8 3 2 14 7 ESE 1009,2 50 0,0
15.06.2018 23:00:00 7,9 4,1 3 2 14 8 ESE 1007,8 50 0,0
15.06.2018 22:00:00 10,0 5,2 3 2 14 8 WSW 1007,0 50 0,0
15.06.2018 21:00:00 14,4 4,4 7 4 18 10 SSW 1005,2 50 0,0
15.06.2018 20:00:00 17,3 3,6 10 6 24 13 SW 1004,1 45 0,0
15.06.2018 19:00:00 17,2 4,2 10 6 37 20 WSW 1003,9 38 0,0
15.06.2018 18:00:00 17,6 3,5 16 9 43 23 W 1003,0 35 0,0
15.06.2018 17:00:00 16,8 3,1 14 8 29 16 WSW 1002,1 45 0,0
15.06.2018 16:00:00 16,5 6,9 3 2 9 5 SE 1001,4 47 0,0
15.06.2018 15:00:00 17,8 8,9 3 2 11 6 NNW 1001,3 39 0,0
15.06.2018 14:00:00 14,4 8,6 5 3 23 12 N 1001,6 7 0,4
15.06.2018 13:00:00 12,9 8,4 11 6 32 17 N 1001,6 42 0,0
15.06.2018 12:00:00 12,7 9,0 10 5 40 22 NW 1000,3 44 1,3
15.06.2018 11:00:00 17,5 9,4 11 6 37 20 SW 998,3 17 0,0
15.06.2018 10:00:00 16,7 9,9 10 6 29 16 SSW 998,0 35 0,0
15.06.2018 09:00:00 14,4 9,4 12 7 34 19 SSW 997,7 41 0,0
15.06.2018 08:00:00 13,9 9,9 10 6 32 17 S 997,1 35 0,0
15.06.2018 07:00:00 13,0 10,2 9 5 27 15 S 997,1 40 0,0
15.06.2018 06:00:00 12,5 10,4 10 5 30 16 S 997,0 42 0,0
15.06.2018 05:00:00 12,0 10,4 9 5 27 15 S 997,0 33 0,0
15.06.2018 04:00:00 11,5 10,2 7 4 26 14 S 997,4 30 0,0
15.06.2018 03:00:00 11,3 10,2 9 5 30 16 S 997,6 11 0,6
15.06.2018 02:00:00 11,4 10,0 9 5 30 16 S 997,9 13 0,3
15.06.2018 01:00:00 12,0 9,2 9 5 27 14 S 997,9 15 0,0
15.06.2018 00:00:00 12,6 9,2 10 5 27 15 SSE 998,2 43 0,0
14.06.2018 23:00:00 12,6 9,6 8 5 26 14 SSE 998,7 48 0,0
14.06.2018 22:00:00 12,6 9,8 10 5 29 16 SSE 999,0 40 0,0
14.06.2018 21:00:00 12,8 9,8 10 5 23 12 SSE 999,6 31 0,0
14.06.2018 20:00:00 12,4 10,3 7 4 30 16 SE 1000,0 36 0,0
14.06.2018 19:00:00 12,8 10,0 10 5 32 17 SSE 1000,7 40 0,0
14.06.2018 18:00:00 12,3 9,9 12 7 31 17 SE 1001,6 34 0,0
14.06.2018 17:00:00 11,5 9,2 13 7 38 21 SSE 1002,9 34 0,0
14.06.2018 16:00:00 12,2 8,7 10 6 34 18 SE 1003,3 50 0,0
14.06.2018 15:00:00 12,9 7,6 14 8 35 19 SE 1003,7 40 0,0
14.06.2018 14:00:00 12,3 6,6 12 7 36 19 SE 1004,8 47 0,0
14.06.2018 13:00:00 11,4 5,7 11 6 37 20 SE 1005,6 47 0,0
14.06.2018 12:00:00 11,6 5,0 13 7 33 18 SE 1006,5 48 0,0
14.06.2018 11:00:00 12,3 4,3 11 6 35 19 SSE 1006,8 47 0,0
14.06.2018 10:00:00 12,2 4,2 11 6 29 15 SE 1007,1 44 0,0
14.06.2018 09:00:00 12,9 4,1 10 5 26 14 SSE 1007,2 39 0,0
14.06.2018 08:00:00 13,0 4,2 7 4 24 13 SSE 1007,5 39 0,0
14.06.2018 07:00:00 12,0 4,5 6 4 19 10 SSE 1008,1 38 0,0
14.06.2018 06:00:00 8,8 4,2 3 2 10 5 SE 1008,8 42 0,0
14.06.2018 05:00:00 7,5 4,6 3 2 10 5 SE 1009,2 48 0,0
14.06.2018 04:00:00 1,4 1,1 0 0 3 2 N 1010,4 44 0,0
14.06.2018 03:00:00 1,5 1,1 0 0 2 1 N 1010,4 47 0,0
14.06.2018 02:00:00 2,4 1,7 0 0 5 3 N 1010,3 50 0,0
14.06.2018 01:00:00 3,8 2,0 3 2 6 4 SE 1010,1 50 0,0
14.06.2018 00:00:00 4,7 1,5 2 1 8 4 SE 1010,0 50 0,0
13.06.2018 23:00:00 6,9 2,0 0 0 8 5 N 1009,4 50 0,0
13.06.2018 22:00:00 12,5 1,2 5 3 13 7 SSW 1008,3 48 0,0
13.06.2018 21:00:00 14,2 -0,3 3 2 15 8 SSE 1007,8 46 0,0
13.06.2018 20:00:00 14,6 -0,3 5 3 14 8 SSE 1007,7 35 0,0

tt = Température de l'air
td = dewpoint
ff = Vitesse du vent
fx = gusts
dd = Direction du vent
ppp = reduced air pressure
vv = visibility
rr = Quantités de précipitations

stations d'obs. à proximité